Location: *
(46.4000°N, 12.6667°E)
Time: 23:45:48
(UTC+00:00)

Cosmos 2322 Rocket - Pass Details

Date: 09 April 2020
Orbit: 834 x 849 km, 71.0° (Epoch: 23 May)

Event Time Altitude Azimuth Distance (km) Brightness Sun altitude
Rises 23:20:20 0° 327° (NNW) 3,402 6.0 -35.5°
Reaches altitude 10° 23:22:54 10° 320° (NW) 2,461 5.1 -35.5°
Enters shadow 23:25:03 22° 308° (NW) 1,757 4.1 -35.5°
